Rochester, Indiana, United States (46975)
Lat: 41.06N, Lon: 86.22W
Wx Zone: INZ015
Local Info
Past Weather Observations for Today

NOTE: This archive is for the closest National Weather Service station to Rochester. Information may differ from the station used for current weather conditions.

Click here for Long-term Archive

Time Weather Temperature Dewpoint Humidity Pressure Winds Precip Visibility
21:35
Clear
25°F / -4°C 12°F / -11°C 59% 30.33 in
(1027 mb)
S 4.6 mph
(S 7 kph)
- 10SM
21:15
Clear
25°F / -4°C 12°F / -11°C 59% 30.33 in
(1027 mb)
S 3.5 mph
(S 6 kph)
- 10SM
20:55
Clear
23°F / -5°C 12°F / -11°C 63% 30.36 in
(1028 mb)
SSE 4.6 mph
(SSE 7 kph)
- 10SM
20:35
Clear
23°F / -5°C 12°F / -11°C 63% 30.36 in
(1028 mb)
SSE 3.5 mph
(SSE 6 kph)
- 10SM
20:15
Clear
23°F / -5°C 12°F / -11°C 63% 30.36 in
(1028 mb)
SSE 3.5 mph
(SSE 6 kph)
- 10SM
19:55
Clear
23°F / -5°C 12°F / -11°C 63% 30.36 in
(1028 mb)
Calm - 10SM
19:35
Clear
25°F / -4°C 12°F / -11°C 59% 30.36 in
(1028 mb)
SSE 3.5 mph
(SSE 6 kph)
- 10SM
19:15
Clear
25°F / -4°C 12°F / -11°C 59% 30.36 in
(1028 mb)
SSE 3.5 mph
(SSE 6 kph)
- 10SM
18:55
Clear
25°F / -4°C 12°F / -11°C 59% 30.36 in
(1028 mb)
SE 5.8 mph
(SE 9 kph)
- 10SM
18:35
Clear
25°F / -4°C 12°F / -11°C 59% 30.39 in
(1029 mb)
SE 3.5 mph
(SE 6 kph)
- 10SM
18:15
Clear
27°F / -3°C 12°F / -11°C 54% 30.39 in
(1029 mb)
SSE 3.5 mph
(SSE 6 kph)
- 10SM
17:55
Clear
27°F / -3°C 12°F / -11°C 54% 30.39 in
(1029 mb)
SSE 3.5 mph
(SSE 6 kph)
- 10SM
17:35
Clear
27°F / -3°C 12°F / -11°C 54% 30.39 in
(1029 mb)
SSE 4.6 mph
(SSE 7 kph)
- 10SM
17:15
Clear
28°F / -2°C 12°F / -11°C 51% 30.39 in
(1029 mb)
SSE 4.6 mph
(SSE 7 kph)
- 10SM
16:55
Clear
28°F / -2°C 12°F / -11°C 51% 30.42 in
(1030 mb)
S 5.8 mph
(S 9 kph)
- 10SM
16:35
Clear
30°F / -1°C 12°F / -11°C 47% 30.39 in
(1029 mb)
S 8.1 mph
(S 13 kph)
- 10SM
16:15
Clear
30°F / -1°C 12°F / -11°C 47% 30.42 in
(1030 mb)
S 9.2 mph
(S 15 kph)
- 10SM
15:55
Clear
30°F / -1°C 12°F / -11°C 47% 30.39 in
(1029 mb)
S 8.1 mph
(S 13 kph)
- 10SM
15:35
Clear
30°F / -1°C 12°F / -11°C 47% 30.42 in
(1030 mb)
S 6.9 mph
(S 11 kph)
- 10SM
15:15
Clear
30°F / -1°C 12°F / -11°C 47% 30.42 in
(1030 mb)
SSE 4.6 mph
(SSE 7 kph)
- 10SM
14:55
Clear
30°F / -1°C 12°F / -11°C 47% 30.42 in
(1030 mb)
SSE 5.8 mph
(SSE 9 kph)
- 10SM
14:35
Clear
30°F / -1°C 12°F / -11°C 47% 30.42 in
(1030 mb)
SSE 4.6 mph
(SSE 7 kph)
- 10SM
14:15
Clear
30°F / -1°C 12°F / -11°C 47% 30.42 in
(1030 mb)
Calm - 10SM
13:55
Clear
30°F / -1°C 12°F / -11°C 47% 30.45 in
(1031 mb)
SSE 6.9 mph
(SSE 11 kph)
- 10SM
13:35
Clear
30°F / -1°C 12°F / -11°C 47% 30.45 in
(1031 mb)
S 6.9 mph
(S 11 kph)
- 10SM
13:15
Clear
28°F / -2°C 12°F / -11°C 51% 30.45 in
(1031 mb)
S 3.5 mph
(S 6 kph)
- 10SM
12:55
Clear
28°F / -2°C 12°F / -11°C 51% 30.45 in
(1031 mb)
S 6.9 mph
(S 11 kph)
- 10SM
12:35
Clear
28°F / -2°C 14°F / -10°C 55% 30.45 in
(1031 mb)
SSE 5.8 mph
(SSE 9 kph)
- 10SM
12:15
Clear
28°F / -2°C 12°F / -11°C 51% 30.48 in
(1032 mb)
S 4.6 mph
(S 7 kph)
- 10SM
11:15
Clear
27°F / -3°C 12°F / -11°C 54% 30.51 in
(1033 mb)
SSE 3.5 mph
(SSE 6 kph)
- 10SM
10:55
Clear
27°F / -3°C 12°F / -11°C 54% 30.51 in
(1033 mb)
SSW 3.5 mph
(SSW 6 kph)
- 10SM
10:35
Clear
25°F / -4°C 12°F / -11°C 59% 30.48 in
(1032 mb)
SSW 4.6 mph
(SSW 7 kph)
- 10SM
10:15
Clear
23°F / -5°C 12°F / -11°C 63% 30.48 in
(1032 mb)
SW 3.5 mph
(SW 6 kph)
- 10SM
09:55
Clear
21°F / -6°C 10°F / -12°C 63% 30.45 in
(1031 mb)
Calm - 10SM
09:35
Clear
19°F / -7°C 10°F / -12°C 68% 30.45 in
(1031 mb)
Calm - 10SM
09:15
Clear
18°F / -8°C 9°F / -13°C 68% 30.45 in
(1031 mb)
Calm - 10SM
08:55
Clear
16°F / -9°C 9°F / -13°C 73% 30.45 in
(1031 mb)
SSW 4.6 mph
(SSW 7 kph)
- 10SM
08:35
Clear
14°F / -10°C 9°F / -13°C 79% 30.45 in
(1031 mb)
SSW 4.6 mph
(SSW 7 kph)
- 10SM
08:15
Clear
14°F / -10°C 7°F / -14°C 73% 30.45 in
(1031 mb)
SW 4.6 mph
(SW 7 kph)
- 10SM
07:55
Clear
12°F / -11°C 7°F / -14°C 79% 30.42 in
(1030 mb)
SSW 4.6 mph
(SSW 7 kph)
- 10SM
07:35
Clear
12°F / -11°C 7°F / -14°C 79% 30.42 in
(1030 mb)
SSW 3.5 mph
(SSW 6 kph)
- 10SM
07:15
Clear
12°F / -11°C 7°F / -14°C 79% 30.42 in
(1030 mb)
SSW 4.6 mph
(SSW 7 kph)
- 10SM
06:55
Clear
12°F / -11°C 5°F / -15°C 73% 30.39 in
(1029 mb)
SSW 4.6 mph
(SSW 7 kph)
- 10SM
06:35
Clear
12°F / -11°C 7°F / -14°C 79% 30.39 in
(1029 mb)
SW 4.6 mph
(SW 7 kph)
- 10SM
06:15
Clear
14°F / -10°C 7°F / -14°C 73% 30.39 in
(1029 mb)
SW 4.6 mph
(SW 7 kph)
- 10SM
05:55
Clear
12°F / -11°C 7°F / -14°C 79% 30.36 in
(1028 mb)
SW 3.5 mph
(SW 6 kph)
- 10SM
05:35
Clear
12°F / -11°C 7°F / -14°C 79% 30.36 in
(1028 mb)
SSW 4.6 mph
(SSW 7 kph)
- 10SM
05:15
Clear
14°F / -10°C 7°F / -14°C 73% 30.36 in
(1028 mb)
Calm - 10SM
04:55
Clear
14°F / -10°C 7°F / -14°C 73% 30.36 in
(1028 mb)
SSW 4.6 mph
(SSW 7 kph)
- 10SM
04:35
Clear
14°F / -10°C 7°F / -14°C 73% 30.33 in
(1027 mb)
SSW 5.8 mph
(SSW 9 kph)
- 10SM
04:15
Clear
14°F / -10°C 7°F / -14°C 73% 30.33 in
(1027 mb)
SSW 4.6 mph
(SSW 7 kph)
- 10SM
03:55
Clear
14°F / -10°C 7°F / -14°C 73% 30.33 in
(1027 mb)
SSW 3.5 mph
(SSW 6 kph)
- 10SM
03:35
Clear
14°F / -10°C 7°F / -14°C 73% 30.33 in
(1027 mb)
SSW 4.6 mph
(SSW 7 kph)
- 10SM
03:15
Clear
14°F / -10°C 7°F / -14°C 73% 30.33 in
(1027 mb)
SSW 3.5 mph
(SSW 6 kph)
- 10SM
02:55
Clear
16°F / -9°C 9°F / -13°C 73% 30.3 in
(1026 mb)
SSW 4.6 mph
(SSW 7 kph)
- 10SM
02:35
Partly Cloudy
18°F / -8°C 7°F / -14°C 62% 30.3 in
(1026 mb)
SSW 6.9 mph
(SSW 11 kph)
- 10SM
02:15
Mostly Cloudy
16°F / -9°C 9°F / -13°C 73% 30.3 in
(1026 mb)
SSW 6.9 mph
(SSW 11 kph)
- 10SM
01:55
Partly Cloudy
18°F / -8°C 9°F / -13°C 68% 30.27 in
(1025 mb)
W 8.1 mph
(W 13 kph)
- 10SM
01:35
Partly Cloudy
18°F / -8°C 9°F / -13°C 68% 30.27 in
(1025 mb)
SSW 5.8 mph
(SSW 9 kph)
- 10SM
01:15
Clear
18°F / -8°C 9°F / -13°C 68% 30.27 in
(1025 mb)
SSW 8.1 mph
(SSW 13 kph)
- 10SM
00:55
Clear
18°F / -8°C 9°F / -13°C 68% 30.24 in
(1024 mb)
SSW 8.1 mph
(SSW 13 kph)
- 10SM
00:35
Clear
18°F / -8°C 9°F / -13°C 68% 30.24 in
(1024 mb)
W 9.2 mph
(W 15 kph)
- 10SM
00:15
Clear
18°F / -8°C 7°F / -14°C 62% 30.24 in
(1024 mb)
SSW 6.9 mph
(SSW 11 kph)
- 10SM
Time Weather Temperature Dewpoint Humidity Pressure Winds Precip Visibility


Weather for websites

WeatherForYou.com, LLC is not responsible for any damages or problems caused by this service. Current weather conditions are obtained from the closest station including government and personal stations which may have varying degrees of accuracy. Weather forecasts are derived from the NOAA NDFD. Like all things, this site belongs to Jesus Christ... He just trusts me to maintain it. If you have any questions or comments email webmaster@weatherforyou.com

Copyright © 2014, WeatherForYou.com LLC. All rights reserved.